[[{"header":{"parameterUnit":"m.s-1","parameterCategory":1,"la1":30.2991,"la2":30.254,"lo1":-89.0895,"lo2":-89.0444,"dy":0.0017,"dx":0.0017,"nx":28,"ny":28,"refTime":"2024-02-20T09:00:00:Z","depth":0,"parameterNumber":2,"parameterNumberName":"U-component_of_WINDS"},"data":[0,0,0,0,0,0,0,0,0,0,0,0,0,0,0,0,0,0,0,0,0,0,0,0,0,0,0,0,0,0,0,0,0,0,0,0,0,0,0,0,0,0,0,0,0,0,0,0,0,0,0,0,0,0,0,0,0,0,1.7037,1.7039,0,1.7163,1.7165,1.7166,1.7169,1.7167,1.7165,1.7164,1.7291,1.7296,1.7301,0,0,0,0,0,0,0,0,0,0,0,0,0,1.6796,1.68,1.7037,1.7039,1.704,1.7163,1.7165,1.7167,1.7169,1.7167,1.7165,1.7163,1.729,1.7295,1.7301,0,0,0,0,0,0,0,0,0,0,0,0,0,1.6909,1.6802,1.7037,1.7056,1.7059,1.7163,1.7165,1.7167,1.7169,1.7167,1.7165,1.7162,1.7288,1.7295,1.7302,1.7394,0,0,1.7324,1.7327,0,0,0,0,0,0,0,0,1.6903,1.6918,1.7052,1.7055,1.7059,1.7148,1.7126,1.7243,1.717,1.7127,1.7164,1.7161,1.7245,1.7256,1.7285,1.74,1.7405,1.7325,1.7329,1.7332,1.7334,0,0,0,0,0,0,0,1.6895,1.6913,1.7087,1.7054,1.7058,1.7058,1.7071,1.7149,1.7198,1.7131,1.7131,1.7146,1.7247,1.7278,1.7288,1.7407,1.7325,1.7331,1.7336,1.7338,1.7604,1.7606,0,0,0,0,0,0,1.6883,1.6906,1.7083,1.7091,1.6973,1.7064,1.7079,1.7122,1.7197,1.7206,1.7148,1.7146,1.7266,1.7279,1.7292,1.7405,1.7332,1.7339,1.7343,1.7601,1.7604,1.7607,0,0,0,0,0,0,1.6878,1.6899,1.7078,1.6999,1.7021,1.7071,1.7118,1.7125,1.7156,1.721,1.7219,1.7171,1.7265,1.7282,1.7369,1.7409,1.7342,1.7349,1.7598,1.7602,1.7606,1.763,0,0,0,0,0,0,1.6871,1.6897,1.6933,1.6999,1.7026,1.7153,1.7121,1.7129,1.7169,1.7167,1.7234,1.7243,1.7264,1.7358,1.7376,1.7418,1.7355,1.7594,1.76,1.7604,1.7626,1.7634,1.7642,0,0,0,0,0,1.6863,1.6935,1.6935,1.6956,1.7072,1.7155,1.717,1.7195,1.7172,1.7209,1.7243,1.7241,1.7402,1.7367,1.7387,1.7432,1.7592,1.7598,1.7604,1.7622,1.7633,1.7642,0,0,0,0,0,0,1.6871,1.6944,1.6945,1.7041,1.7092,1.7156,1.7202,1.7205,1.7263,1.7259,1.7286,1.7301,1.7387,1.7418,1.7378,1.7524,1.7494,1.7504,1.7501,1.7511,1.7519,1.7509,1.7361,0,0,0,0,0,1.6885,1.6947,1.7007,1.7085,1.7111,1.7152,1.719,1.7204,1.7258,1.7279,1.732,1.7372,1.7434,1.7474,1.7535,1.763,1.7644,1.7671,1.7679,1.7685,1.7694,1.7746,1.7758,1.7627,1.7627,1.7627,0,0,1.6912,1.6959,1.6997,1.7088,1.713,1.7193,1.717,1.7239,1.7286,1.7289,1.7374,1.7406,1.7465,1.7556,1.7599,1.7585,1.7733,1.7693,1.7698,1.7703,1.7753,1.7766,1.7777,1.7631,1.763,1.763,0,0,1.6995,1.7037,1.7107,1.7149,1.7213,1.7239,1.7256,1.732,1.7341,1.7427,1.743,1.7486,1.7593,1.7635,1.7671,1.7769,1.7769,1.7788,1.7829,1.788,1.789,1.7899,1.7934,1.7946,1.7796,1.7797,1.7797,0,1.7021,1.7117,1.7143,1.7211,1.7251,1.7258,1.7329,1.7368,1.7447,1.7474,1.7458,1.7592,1.7632,1.7733,1.7757,1.7786,1.7805,1.778,1.7887,1.7896,1.7905,1.7939,1.7952,1.7798,1.7798,1.7798,1.7798,0,1.7146,1.7213,1.7262,1.7339,1.7384,1.7453,1.7489,1.7531,1.7541,1.757,1.7656,1.7705,1.7775,1.78,1.7811,1.7903,1.7892,1.7881,1.7851,1.7919,1.7951,1.7964,1.7801,1.78,1.78,1.7799,0,0,1.7237,1.7328,1.7345,1.738,1.7451,1.7502,1.7571,1.7641,1.7676,1.7731,1.7789,1.7879,1.7869,1.7909,1.7925,1.7969,1.8043,1.7953,1.7954,1.7967,1.8147,1.8154,1.8169,1.8044,1.8046,1.8048,1.8142,0,1.7327,1.7451,1.7476,1.7583,1.7645,1.7652,1.7712,1.7762,1.779,1.7846,1.7876,1.794,1.7922,1.7946,1.7991,1.8025,1.808,1.8019,1.8097,1.81,1.8081,1.8185,1.8194,1.828,1.8154,1.8156,1.8158,0,1.7448,1.7506,1.762,1.7682,1.7709,1.7762,1.7828,1.7881,1.7937,1.7954,1.7999,1.8009,1.8081,1.8048,1.8146,1.8104,1.8137,1.8159,1.8163,1.817,1.8132,1.8195,1.8308,1.832,1.8178,1.8176,1.8175,0,1.7502,1.7609,1.7691,1.772,1.7795,1.7832,1.7865,1.7918,1.7958,1.8015,1.8041,1.8105,1.814,1.8189,1.8216,1.819,1.8312,1.8282,1.8328,1.8327,1.8353,1.8351,1.8471,1.8375,1.8375,1.8375,1.8375,0,1.7599,1.7668,1.7716,1.7766,1.7843,1.7871,1.7947,1.7979,1.8026,1.8082,1.8092,1.8144,1.8177,1.8234,1.8255,1.8333,1.8348,1.8364,1.8369,1.8363,1.8361,1.8384,1.8379,1.8378,1.8378,1.8377,1.8376,0,1.7673,1.7708,1.7797,1.786,1.7878,1.7932,1.7986,1.8034,1.8063,1.8133,1.8151,1.8196,1.8263,1.8295,1.8378,1.8392,1.848,1.8481,1.8461,1.8463,1.8507,1.8502,1.8647,1.8667,1.8558,1.8559,1.856,0,1.7732,1.7785,1.7855,1.7893,1.7927,1.7989,1.803,1.8059,1.8102,1.8169,1.8209,1.8277,1.8332,1.8439,1.8478,1.8541,1.8543,1.859,1.8553,1.8545,1.8543,1.8539,1.8544,1.8596,1.8597,1.8598,1.8599,0,1.7833,1.7848,1.7907,1.7973,1.8022,1.8074,1.8126,1.8157,1.8194,1.8241,1.831,1.8353,1.8438,1.8505,1.8571,1.8603,1.8607,1.861,1.8624,1.8618,1.8604,1.8611,1.8479,1.8606,1.8606,1.8605,1.8605,1.8604,1.7901,1.7948,1.8005,1.807,1.8113,1.8161,1.821,1.8244,1.8303,1.8375,1.8388,1.8462,1.8515,1.8605,1.8639,1.8696,1.8686,1.8706,1.8711,1.8715,1.8717,1.8596,1.8708,1.8708,1.8708,1.8708,1.8708,0,1.8001,1.8038,1.8099,1.8171,1.8223,1.8223,1.828,1.8323,1.8388,1.8438,1.8493,1.8572,1.8637,1.8681,1.8746,1.8783,1.8787,1.8799,1.8796,1.8804,1.8723,1.8705,1.8796,1.8796,1.8796,1.8796,1.8795,1.8795,1.806,1.8141,1.8162,1.8263,1.83,1.8372,1.8405,1.8449,1.8489,1.8577,1.8632,1.8661,1.8708,1.8777,1.8836,1.8848,1.8871,1.8884,1.8895,1.8819,1.8809,1.8801,1.8783,1.8889,1.8889,1.897,1.8971,1.8971]},{"header":{"parameterUnit":"m.s-1","parameterCategory":1,"la1":30.2991,"la2":30.254,"lo1":-89.0895,"lo2":-89.0444,"dy":0.0017,"dx":0.0017,"nx":28,"ny":28,"refTime":"2024-02-20T09:00:00:Z","depth":0,"parameterNumber":3,"parameterNumberName":"V-component_of_WINDS"},"data":[0,0,0,0,0,0,0,0,0,0,0,0,0,0,0,0,0,0,0,0,0,0,0,0,0,0,0,0,0,0,0,0,0,0,0,0,0,0,0,0,0,0,0,0,0,0,0,0,0,0,0,0,0,0,0,0,0,0,3.6079,3.608,0,3.6258,3.626,3.6262,3.6284,3.6282,3.628,3.6278,3.6465,3.6471,3.6478,0,0,0,0,0,0,0,0,0,0,0,0,0,3.5757,3.5763,3.6078,3.6081,3.6083,3.6257,3.626,3.6262,3.6284,3.6282,3.628,3.6278,3.6462,3.647,3.6478,0,0,0,0,0,0,0,0,0,0,0,0,0,3.5913,3.5765,3.6078,3.6115,3.612,3.6257,3.626,3.6263,3.6284,3.6282,3.6279,3.6277,3.646,3.6469,3.6479,3.6593,0,0,3.6509,3.6514,0,0,0,0,0,0,0,0,3.5904,3.5924,3.6107,3.6112,3.6118,3.6246,3.6215,3.6374,3.6285,3.6222,3.6278,3.6275,3.6394,3.6409,3.6449,3.6602,3.661,3.651,3.6516,3.6521,3.6523,0,0,0,0,0,0,0,3.5893,3.5917,3.6149,3.611,3.6117,3.6123,3.6142,3.6245,3.6321,3.6227,3.6229,3.625,3.6397,3.6439,3.6453,3.6613,3.651,3.6519,3.6525,3.6529,3.687,3.6873,0,0,0,0,0,0,3.5875,3.5908,3.6144,3.6155,3.6002,3.6131,3.6152,3.6207,3.632,3.6334,3.6252,3.625,3.6423,3.6442,3.646,3.6602,3.652,3.653,3.6535,3.6867,3.6871,3.6874,0,0,0,0,0,0,3.5868,3.5896,3.6137,3.6032,3.6063,3.6139,3.6201,3.6212,3.6255,3.6338,3.6352,3.6281,3.6422,3.6446,3.656,3.6609,3.6534,3.6543,3.6863,3.6868,3.6872,3.6886,0,0,0,0,0,0,3.5859,3.5893,3.5937,3.6033,3.6068,3.6233,3.6204,3.6218,3.6272,3.6271,3.637,3.6383,3.6422,3.6545,3.657,3.6621,3.6551,3.6859,3.6865,3.6871,3.6882,3.6891,3.6898,0,0,0,0,0,3.5847,3.5934,3.5939,3.5967,3.6124,3.6236,3.6256,3.6298,3.6275,3.632,3.6374,3.638,3.6599,3.6557,3.6585,3.6639,3.6856,3.6864,3.687,3.6878,3.6889,3.6898,0,0,0,0,0,0,3.5842,3.5947,3.5954,3.6074,3.6146,3.6239,3.6297,3.6308,3.6388,3.6385,3.6434,3.6456,3.6568,3.6615,3.6566,3.6756,3.6726,3.6739,3.6722,3.6733,3.6741,3.6728,3.6559,0,0,0,0,0,3.5855,3.5936,3.6023,3.6121,3.6156,3.622,3.627,3.6296,3.6373,3.6404,3.6466,3.6541,3.6627,3.6682,3.6766,3.6888,3.6911,3.694,3.6948,3.6955,3.6966,3.7036,3.705,3.6897,3.6897,3.6897,0,0,3.5882,3.595,3.5998,3.6121,3.618,3.6264,3.6246,3.6335,3.6398,3.6418,3.6529,3.6577,3.6664,3.6784,3.6839,3.6826,3.7013,3.6964,3.6968,3.6976,3.7044,3.7059,3.7072,3.6902,3.6901,3.69,0,0,3.5975,3.6034,3.6122,3.6181,3.627,3.6312,3.6333,3.6425,3.6458,3.657,3.6587,3.6663,3.6809,3.6871,3.6922,3.7038,3.7048,3.7064,3.7109,3.7176,3.7188,3.7199,3.7243,3.7257,3.7075,3.7075,3.7075,0,3.5999,3.6125,3.6166,3.6255,3.6309,3.633,3.6421,3.6476,3.6588,3.6626,3.6609,3.6794,3.6854,3.6988,3.7017,3.7056,3.7083,3.7054,3.7183,3.7194,3.7205,3.7247,3.7263,3.7076,3.7076,3.7076,3.7076,0,3.6149,3.6237,3.6297,3.6404,3.6465,3.6555,3.661,3.6668,3.6688,3.6732,3.6847,3.692,3.7019,3.7053,3.7074,3.7191,3.718,3.7173,3.7143,3.7221,3.7261,3.7277,3.7078,3.7078,3.7077,3.7077,0,0,3.6245,3.6374,3.6396,3.6445,3.6545,3.6613,3.6704,3.68,3.6849,3.6925,3.7003,3.7127,3.7121,3.7178,3.7206,3.7265,3.7355,3.7251,3.7254,3.7269,3.7491,3.7497,3.7515,3.7361,3.7364,3.7367,3.7484,0,3.6351,3.6512,3.6552,3.669,3.6772,3.6793,3.6872,3.6942,3.6986,3.7063,3.7111,3.7199,3.7183,3.7218,3.7277,3.7331,3.7401,3.7323,3.7436,3.744,3.7416,3.7536,3.7543,3.765,3.75,3.7503,3.7505,0,3.6496,3.6575,3.6721,3.6811,3.6847,3.6917,3.7009,3.7082,3.7162,3.719,3.7254,3.7277,3.7373,3.7337,3.7472,3.7418,3.7467,3.7501,3.7506,3.7519,3.7478,3.7554,3.7685,3.7701,3.753,3.7528,3.7526,0,3.6553,3.6696,3.6803,3.6844,3.6951,3.7,3.7047,3.7125,3.718,3.7261,3.7298,3.7389,3.7439,3.7509,3.7556,3.7526,3.7688,3.7655,3.7715,3.7714,3.775,3.7747,3.7891,3.7778,3.7778,3.7777,3.7777,0,3.6668,3.6757,3.683,3.6896,3.6996,3.7041,3.714,3.7188,3.7257,3.7333,3.7356,3.7428,3.7484,3.7564,3.7601,3.7708,3.773,3.7756,3.7766,3.7756,3.7752,3.7789,3.7784,3.7782,3.7781,3.778,3.7779,0,3.675,3.6802,3.692,3.7011,3.7036,3.7106,3.7185,3.7251,3.7294,3.739,3.7416,3.7485,3.758,3.7633,3.7752,3.7778,3.7897,3.7902,3.787,3.7874,3.7932,3.7926,3.8106,3.8133,3.8,3.8001,3.8002,0,3.6821,3.689,3.6988,3.7041,3.7088,3.7172,3.7229,3.7276,3.7335,3.7432,3.7486,3.7581,3.7661,3.7811,3.7873,3.7965,3.7973,3.803,3.7987,3.7975,3.7976,3.7972,3.798,3.8038,3.8039,3.804,3.8041,0,3.6941,3.6964,3.7044,3.7134,3.7201,3.7274,3.7347,3.7389,3.7448,3.7513,3.761,3.7671,3.7792,3.7888,3.7985,3.8035,3.8049,3.8053,3.8073,3.8064,3.8043,3.8057,3.7892,3.805,3.8049,3.8048,3.8048,3.8047,3.7021,3.7084,3.7164,3.7253,3.7312,3.738,3.7446,3.7498,3.7579,3.7681,3.7704,3.7806,3.7886,3.8017,3.807,3.8151,3.8141,3.8168,3.8176,3.8182,3.8185,3.8028,3.8169,3.8169,3.8169,3.8168,3.8168,0,3.7145,3.7197,3.7278,3.7379,3.745,3.7455,3.7536,3.7595,3.7684,3.7757,3.7834,3.7946,3.8039,3.8108,3.8203,3.8256,3.8265,3.8279,3.8277,3.8289,3.8188,3.8163,3.8271,3.8271,3.8271,3.8271,3.8271,3.8271,3.7217,3.7324,3.7356,3.7493,3.7545,3.7645,3.7691,3.7754,3.7812,3.7936,3.8013,3.8056,3.8129,3.8229,3.8315,3.8333,3.8368,3.8383,3.8402,3.8306,3.8296,3.8285,3.8262,3.8389,3.8389,3.8496,3.8497,3.8498]}]]